#timestamp,LO_Frequency,Hit,StdDev 
1567252815.8,286046975.6,N
1567252835.6,286046978.7,N
1567252855.5,286046981.1,N
1567252875.3,286046985.2,N
1567252895.2,286046989.7,N
1567252915.9,286046991.2,N
1567252935.7,286046989.8,N
1567252955.6,286046983.8,N
1567252975.4,286046981.5,N
1567252995.2,286046983.1,N
1567253015.1,286046981.6,N
1567253016.0,286046981.6,N
1567253035.8,286046977.1,N
1567253055.7,286046970.0,Y
1567253075.5,286046981.7,P
1567253095.3,286046981.4,P
1567253115.2,286046983.8,P
1567253135.0,286046987.9,Y
1567253135.9,286046987.9,P
1567253155.8,286047006.0,N
1567253175.6,286047007.4,N
1567253195.4,286047004.1,N
1567253215.3,286046998.9,N
1567253235.1,286046999.6,N
1567253255.9,286046997.4,N
1567253275.7,286046994.8,N
1567253295.5,286046991.9,N
1567253315.4,286046991.4,N
1567253335.2,286046986.9,N
1567253355.1,286046989.8,N
1567253356.0,286046989.8,N
1567253375.8,286046992.1,N
1567253395.6,286046992.3,N
1567253415.5,286046994.2,N
1567253435.3,286046990.7,N
1567253455.1,286046987.5,N
1567253475.9,286046989.9,N
1567253495.7,286046991.1,N
1567253515.6,286046987.0,N
1567253535.4,286046987.8,N
1567253555.2,286046989.2,N
1567253575.1,286046989.9,N
1567253576.0,286046989.9,N
1567253595.8,286046987.8,N
1567253615.6,286046987.5,N
1567253635.5,286046989.8,N
1567253655.3,286046990.8,N
1567253675.2,286046990.9,N
1567253695.9,286046991.3,N
1567253715.7,286046987.9,N
1567253735.6,286046987.1,N
1567253755.4,286046990.3,N
1567253775.2,286046994.0,N
1567253795.1,286046995.5,N
1567253796.0,286046995.5,N
1567253815.8,286046996.5,N
1567253835.7,286046996.6,N
1567253855.5,286046996.7,N
1567253875.3,286046998.8,N
1567253895.2,286046999.4,N
1567253915.0,286046996.9,N
1567253915.9,286046996.9,N
1567253935.7,286046997.9,N
1567253955.6,286046995.7,N
1567253975.4,286046997.9,N
1567253995.3,286046993.4,N
1567254015.1,286046992.0,N
1567254035.8,286046992.6,N
1567254055.7,286046994.0,N
1567254075.5,286046990.8,N
1567254095.3,286046990.8,N
1567254115.2,286046993.5,N
1567254135.0,286046997.6,N
1567254135.9,286046997.6,N
1567254155.8,286046999.6,N
1567254175.6,286046998.4,N
1567254195.4,286046998.9,N
1567254215.3,286046998.3,N
1567254235.1,286046999.3,N
1567254255.8,286046997.0,N
1567254275.7,286046998.8,N
1567254295.5,286046999.6,N
1567254315.4,286046998.3,N
1567254335.2,286046998.7,N
1567254355.0,286047001.0,N
1567254355.9,286047001.0,N
1567254375.8,286046998.1,N
1567254395.6,286046997.0,N
1567254415.4,286046999.3,N
1567254435.3,286046997.2,N
1567254455.1,286046995.3,N
1567254475.9,286046995.7,N
1567254495.7,286046994.5,N
1567254515.6,286046993.0,N
1567254535.4,286046989.0,Y
1567254555.2,286046984.0,P
1567254575.1,286046979.8,P
1567254576.0,286046979.8,N
1567254595.8,286046977.6,Y
1567254615.7,286046999.6,P
1567254635.5,286046999.5,N
1567254655.3,286047000.7,N
1567254675.2,286047001.1,N
1567254695.9,286046999.2,N
1567254715.7,286046998.0,N
1567254735.6,286046997.8,N
1567254755.4,286046995.7,N
1567254775.3,286046991.4,N
1567254795.1,286046987.5,N
1567254796.0,286046987.5,N
1567254815.8,286046982.2,Y
1567254835.7,286046986.0,P
1567254855.5,286046984.8,P
1567254875.3,286046982.4,P
1567254895.2,286046987.7,N
1567254915.0,286046989.9,N
1567254915.9,286046989.9,N
1567254935.8,286046987.6,Y
1567254955.6,286046995.4,P
1567254975.4,286046997.1,N
1567254995.3,286047000.8,N
1567255015.1,286047000.5,N
1567255035.9,286047000.7,N
1567255055.7,286047000.3,N
1567255075.5,286047004.3,N
1567255095.4,286046997.2,N
1567255115.2,286046992.9,N
1567255135.0,286046991.4,N
1567255135.9,286046991.4,N
1567255155.8,286046988.1,N
1567255175.6,286046987.0,N
1567255195.5,286046991.9,N
1567255215.3,286046991.7,N
1567255235.1,286046989.5,N
1567255255.9,286046988.1,N
1567255275.7,286046985.2,N
1567255295.5,286046982.2,Y
1567255315.4,286046991.5,P
1567255335.2,286046993.5,P
1567255355.1,286046996.2,P
1567255356.0,286046996.2,N
1567255375.8,286046991.9,Y
1567255395.6,286046995.2,P
1567255415.5,286046998.0,P
1567255435.3,286046995.4,N
1567255455.1,286046998.6,N
1567255475.9,286047006.0,Y
1567255495.7,286047011.8,P
1567255515.6,286047014.9,N
1567255535.4,286047014.2,N
1567255555.2,286047020.4,N
1567255575.1,286047017.3,N
1567255576.0,286047017.3,N
1567255595.8,286047020.4,N
1567255615.7,286047016.7,N
1567255635.5,286047010.1,N
1567255655.3,286047004.7,N
1567255675.2,286047003.3,N
1567255695.9,286047008.3,N
1567255715.7,286047007.5,N
1567255735.6,286047000.9,N
1567255755.4,286047000.2,N
1567255775.3,286047001.3,N
1567255795.1,286046999.3,N
1567255796.0,286046999.3,N
1567255815.8,286046997.1,N
1567255835.7,286046997.8,N
1567255855.5,286047000.3,N
1567255875.3,286046998.2,N
1567255895.2,286046999.2,N
1567255915.0,286046995.2,N
1567255915.9,286046995.2,N
1567255935.8,286046994.3,N
1567255955.6,286046993.5,N
1567255975.5,286046993.0,N
1567255995.3,286046994.1,N
1567256015.1,286046998.6,N
1567256035.9,286047003.5,N
1567256055.7,286047005.9,N
1567256075.5,286047003.4,N
1567256095.4,286047005.9,N
1567256115.2,286047005.4,N
1567256135.1,286047003.8,N
1567256136.0,286047003.8,N
1567256155.8,286047007.6,N
1567256175.6,286047004.5,N
1567256195.5,286047009.2,N
1567256215.3,286047008.0,N
1567256235.1,286047010.5,N
1567256255.9,286047009.6,N
1567256275.7,286047012.0,N
1567256295.6,286047009.4,N
1567256315.4,286047009.8,N
1567256335.2,286047011.4,N
1567256355.1,286047013.4,N
1567256356.0,286047013.4,N
1567256375.8,286047012.9,N
1567256395.7,286047013.0,N
